EW4821 Weather Reports


time (UTC)temp
F
wind
direction
speed
knots
gust
knots
rain 1hr
in
rain 24hr
in
rain mn
in
humidity
%
barometer
mb
20260507064510 50 323 0.9 3.5 0.03 0.30 0.08 93 1011.4
20260507063005 50 321 1.7 7.0 0.01 0.28 0.06 92 1011.4
20260507061523 51 329 3.5 8.7 0.01 0.27 0.05 91 1011.2
20260507053017 52 318 9.6 13.9 0.01 0.27 0.05 90 1011.2
20260507051511 53 313 6.1 10.4 0.01 0.26 0.04 91 1011.2
20260507050006 53 329 7.8 11.3 0.04 0.26 0.04 90 1011.4
20260507040021 55 300 4.3 8.7 0.01 0.22 0.00 89 1010.6
20260507034515 55 305 5.2 9.6 0.03 0.22 0.22 90 1010.6
20260507033012 55 286 7.0 10.4 0.03 0.22 0.22 90 1010.8
20260507031517 56 302 5.2 9.6 0.03 0.22 0.22 89 1010.5
20260507030020 56 312 7.0 11.3 0.02 0.21 0.21 89 1010.5
20260507024514 57 295 6.1 9.6 0.00 0.19 0.19 91 1010.7
20260507023019 58 305 4.3 8.7 0.04 0.19 0.19 91 1010.1
20260507021507 58 310 4.3 8.7 0.05 0.19 0.19 92 1010.3
20260507020006 58 330 3.5 7.0 0.05 0.19 0.19 92 1010.0
20260507014519 59 313 5.2 11.3 0.05 0.19 0.19 91 1010.2
20260507013017 61 283 6.1 9.6 0.01 0.15 0.15 91 1010.4
20260507011514 62 268 3.5 8.7 0.00 0.14 0.14 91 1010.5
20260507010018 62 272 5.2 11.3 0.00 0.14 0.14 90 1010.2
20260507004512 64 267 9.6 15.6 0.00 0.14 0.14 89 1010.1
20260507003014 64 229 0.9 1.7 0.00 0.14 0.14 90 1009.5
20260507001510 64 207 0.0 2.6 0.00 0.14 0.14 90 1009.4
20260507000012 65 204 0.9 2.6 0.00 0.14 0.14 89 1009.0
20260506234510 65 169 0.9 3.5 0.00 0.14 0.14 89 1008.9
20260506233020 65 211 1.7 4.3 0.00 0.14 0.14 88 1008.9
20260506231520 65 206 1.7 4.3 0.00 0.14 0.14 88 1008.8
20260506230020 66 193 1.7 5.2 0.00 0.14 0.14 87 1008.9
20260506224512 66 196 0.9 4.3 0.00 0.14 0.14 88 1008.8
20260506223009 66 159 2.6 4.3 0.00 0.14 0.14 87 1008.9
20260506221507 65 194 0.0 1.7 0.00 0.14 0.14 88 1008.8
20260506220025 65 197 1.7 6.1 0.00 0.14 0.14 87 1008.9
20260506214536 65 192 2.6 7.8 0.00 0.14 0.14 87 1008.7
20260506213016 65 196 2.6 7.0 0.00 0.14 0.14 87 1008.3
20260506211517 66 166 2.6 5.2 0.00 0.14 0.14 86 1008.1
20260506210019 66 163 2.6 7.8 0.00 0.14 0.14 86 1008.0
20260506204515 66 189 3.5 7.8 0.00 0.14 0.14 87 1007.9
20260506203019 66 146 1.7 7.0 0.00 0.14 0.14 88 1008.0
20260506201514 66 168 2.6 10.4 0.00 0.14 0.14 87 1007.9
20260506200008 66 159 4.3 8.7 0.00 0.14 0.14 88 1007.9
20260506194507 65 190 4.3 7.8 0.00 0.14 0.14 90 1007.8
20260506193010 64 160 2.6 8.7 0.00 0.14 0.14 91 1008.0
20260506191512 63 165 3.5 8.7 0.00 0.14 0.14 91 1008.3
20260506190014 63 163 3.5 7.8 0.00 0.14 0.14 91 1008.3
20260506183013 62 183 4.3 8.7 0.00 0.14 0.14 93 1008.6
20260506181515 61 168 4.3 9.6 0.00 0.14 0.14 94 1008.6
20260506180012 61 177 4.3 7.8 0.00 0.14 0.14 94 1008.8
20260506173016 60 179 4.3 12.2 0.00 0.14 0.14 95 1008.7
20260506170011 59 193 6.1 12.2 0.00 0.14 0.14 95 1008.7
20260506164516 59 161 6.1 12.2 0.01 0.14 0.14 95 1008.7
20260506163018 59 123 5.2 11.3 0.01 0.14 0.14 95 1008.9
20260506161515 59 155 6.1 13.0 0.03 0.14 0.14 95 1009.0
20260506160012 59 183 7.0 12.2 0.04 0.14 0.14 95 1008.9
20260506154512 59 142 5.2 8.7 0.05 0.13 0.13 95 1008.8
20260506153020 59 169 5.2 9.6 0.06 0.13 0.13 95 1008.8
20260506151516 59 174 4.3 9.6 0.05 0.11 0.11 95 1009.5
20260506150017 59 159 6.1 11.3 0.04 0.10 0.10 94 1009.5
20260506143019 60 161 4.3 9.6 0.04 0.07 0.07 94 1009.5
20260506141514 59 157 5.2 8.7 0.04 0.06 0.06 93 1009.2
20260506140017 60 159 3.5 7.0 0.05 0.06 0.06 93 1009.5
20260506134521 60 176 3.5 6.1 0.05 0.05 0.05 92 1009.7
20260506133020 60 165 3.5 6.1 0.03 0.03 0.03 91 1009.8
20260506131521 60 153 3.5 6.1 0.02 0.02 0.02 89 1009.8
20260506130020 61 167 2.6 7.0 0.01 0.01 0.01 87 1009.5
20260506124522 61 138 4.3 7.8 0.00 0.00 0.00 86 1009.7
20260506123018 62 171 3.5 8.7 0.00 0.00 0.00 84 1009.8
20260506121515 62 155 5.2 8.7 0.00 0.00 0.00 81 1010.0
20260506120020 63 176 5.2 9.6 0.00 0.00 0.00 81 1010.0
20260506114527 62 163 6.1 9.6 0.00 0.00 0.00 81 1009.8
20260506113035 63 142 4.3 11.3 0.00 0.00 0.00 81 1009.7
20260506111521 63 169 6.1 9.6 0.00 0.00 0.00 79 1009.5
20260506110008 63 201 7.0 11.3 0.00 0.00 0.00 79 1009.4
20260506104518 63 163 4.3 9.6 0.00 0.00 0.00 79 1009.2
20260506103009 63 148 5.2 10.4 0.00 0.00 0.00 78 1009.0
20260506101511 63 161 5.2 10.4 0.00 0.00 0.00 78 1009.0
20260506100012 63 165 3.5 9.6 0.00 0.00 0.00 77 1009.0
20260506094508 63 179 5.2 9.6 0.00 0.00 0.00 76 1009.0
20260506093013 64 172 4.3 8.7 0.00 0.00 0.00 75 1009.0
20260506091508 64 157 5.2 12.2 0.00 0.00 0.00 74 1009.1
20260506090008 64 154 6.1 9.6 0.00 0.00 0.00 73 1009.3
20260506084518 64 150 6.1 10.4 0.00 0.00 0.00 72 1009.3
20260506081510 65 161 5.2 10.4 0.00 0.00 0.00 70 1009.3
20260506073015 66 169 4.3 8.7 0.00 0.00 0.00 67 1009.5
20260506071511 67 164 3.5 7.0 0.00 0.00 0.00 66 1009.6